Regional Weather Roundup
Issued by NWS

Home | Current Version | Previous Version | Graphics & Text | Print | Product List | Glossary On
Versions: 1 2 3 4 5 6 7 8 9 10 11 12 13 14 15 16 17 18 19 20 21 22 23 24 25 26 27 28 29 30 31 32 33 34 35 36 37 38 39 40 41 42 43 44 45 46 47 48 49 50
202
ASUS43 KDMX 252206
RWRIA

WEATHER ROUNDUP FOR IOWA
NATIONAL WEATHER SERVICE DES MOINES IA
500 PM CDT SUN JUN 25 2017

NOTE: "FAIR" INDICATES FEW OR NO CLOUDS BELOW 12,000 FEET WITH NO
SIGNIFICANT WEATHER AND/OR OBSTRUCTIONS TO VISIBILITY.

* - THESE STATIONS ARE NOT NWS STATIONS...THUS NOT UNDER NWS
QUALITY CONTROL.  THEY ALSO DO NOT REPORT WEATHER SUCH
AS PRECIPITATION OR FOG.

IAZ001>003-012>014-020>022-031>034-043>046-252300-
   NORTHWEST IOWA

CITY           SKY/WX    TMP DP  RH WIND       PRES   REMARKS
CARROLL *      SUNNY     73  41  31 N15G23    30.22S
CHEROKEE *     SUNNY     71  42  34 NW7       30.22F
DENISON *      SUNNY     73  41  31 NW9G17    30.24F
LE MARS *      SUNNY     73  41  31 N13G18    30.23F
ORANGE CITY *  SUNNY     72  45  37 NW10      30.23S
SHELDON *      SUNNY     72  41  33 N16G23    30.20F
SIOUX CITY     SUNNY     74  41  30 N7        30.23F
SPENCER        MOSUNNY   73  40  30 N14G21    30.21F
STORM LAKE *     N/A     72  39  30 NW18      30.22F
$$

IAZ055>058-069>071-079>083-090>094-252300-
   SOUTHWEST IOWA

CITY           SKY/WX    TMP DP  RH WIND       PRES   REMARKS
ATLANTIC *     SUNNY     72  41  33 NW9G18    30.24S
AUDUBON *      SUNNY     73  39  29 NW7       30.24S
CLARINDA *     SUNNY     73  46  38 NW8G15    30.27S
COUNCIL BLFS * SUNNY     73  41  31 NW13      30.25S
CRESTON *      SUNNY     72  43  35 NW10G20   30.25F
HARLAN  *      SUNNY     72  43  35 NW9G18    30.27F
LAMONI         SUNNY     73  45  36 NW10      30.24S
RED OAK *      SUNNY     73  45  35 W9        30.25S
SHENANDOAH *   SUNNY     73  45  35 NW7       30.26S
$$

IAZ047>049-059>061-072>074-084-252300-
   CENTRAL IOWA

CITY           SKY/WX    TMP DP  RH WIND       PRES   REMARKS
AMES           MOSUNNY   74  42  31 NW18G28   30.20F
ANKENY *       MOSUNNY   72  43  35 NW14G21   30.21F
BOONE *        MOSUNNY   72  41  33 NW14G24   30.19F
CHARITON *     MOSUNNY   73  43  33 NW15G21   30.22S
DES MOINES     MOSUNNY   73  42  32 NW14G21   30.20F
GRINNELL*      MOSUNNY   72  42  34 NW15      30.20S
KNOXVILLE *    MOSUNNY   70  43  37 NW16G22   30.20S
MARSHALLTOWN   MOSUNNY   71  43  36 NW18G29   30.18S
NEWTON *       SUNNY     72  43  35 NW18      30.20S
PELLA *        MOSUNNY   72  41  33 NW13G23   30.21S
PERRY *          N/A     73  39  28 NW9G20    30.22S
$$

IAZ004>006-015-016-023>025-035-036-252300-
   NORTH CENTRAL IOWA

CITY           SKY/WX    TMP DP  RH WIND       PRES   REMARKS
ALGONA *       SUNNY     70  39  32 N17G25    30.20S
CLARION *        N/A     70  41  35 NW16G23   30.19F
ESTHERVILLE    MOSUNNY   67  41  38 NW18G30   30.21S
FORT DODGE *   SUNNY     72  43  35 NW12G22   30.21F
MASON CITY     PTSUNNY   67  39  35 NW17      30.19S
FOREST CITY *    N/A     68  28  22 NW16      30.18F
WEBSTER CITY * SUNNY     72  41  33 NW17      30.18S
IOWA FALLS *     N/A     72  41  32 NW20G25   30.20S
$$

IAZ007>011-017>019-026>030-037>042-050>054-066-252300-
   NORTHEAST IOWA

CITY           SKY/WX    TMP DP  RH WIND       PRES   REMARKS
CEDAR RAPIDS   PTSUNNY   68  49  50 NW17      30.16S
CHARLES CITY * MOSUNNY   68  43  40 NW16G23   30.16F
CLINTON *      CLOUDY    66  50  56 W18       30.16S
DECORAH *      MOSUNNY   64  48  55 NW12G23   30.13F
DUBUQUE        MOSUNNY   64  49  57 NW16G24   30.16S
MONTICELLO *   CLOUDY    66  50  55 NW13G22   30.15F
OELWEIN *      MOSUNNY   66  46  48 NW17G25   30.16F
WATERLOO       MOSUNNY   70  43  37 NW17G28   30.15F
$$

IAZ064-065-067-068-078-252300-
   EAST CENTRAL IOWA

CITY           SKY/WX    TMP DP  RH WIND       PRES   REMARKS
DAVENPORT      MOSUNNY   68  50  52 NW14      30.16F
IOWA CITY      PTSUNNY   71  47  42 NW9G20    30.18S
MT. PLEASANT * MOSUNNY   73  41  31 NW13G21   30.18S
MUSCATINE *    MOSUNNY   73  45  35 NW14      30.17S
QUAD CITIES    MOSUNNY   69  49  48 NW15      30.15F
$$

IAZ062-063-075>077-085>089-095>099-252300-
   SOUTHEAST IOWA

CITY           SKY/WX    TMP DP  RH WIND       PRES   REMARKS
BURLINGTON     PTSUNNY   72  46  39 VRB7G18   30.17S
FAIRFIELD *    MOSUNNY   73  41  31 NW14G22   30.18S
FORT MADISON * MOSUNNY   73  45  35 W14       30.19S
KEOKUK *       MOSUNNY   73  46  38 NW14      30.18S
OSKALOOSA *      N/A     72  43  35 W14G21    30.20S
CENTERVILLE *    N/A     72  45  37 W12G20    30.23S
OTTUMWA        SUNNY     74  42  31 NW15G23   30.20S
WASHINGTON *   MOSUNNY   73  45  35 NW20      30.19S
$$

ABBREVIATIONS USED IN REMARKS
   TC - TEMPERATURES IN CELSIUS
  WCI - WIND CHILL INDEX
   HX - HEAT INDEX
  VSB - VISIBILITY
$$





USA.gov is the U.S. government's official web portal to all federal, state and local government web resources and services.